Iridium Next SV128

operational
NORAD ID: 42811 Int'l Des: 2017-039 Owner: IRIDS Country: US Constellation: Iridium NEXT
LEOCIRCULARPOLAR

About Iridium Next SV128

Description loading...

Live Position

Loading 3D Globe...

Upcoming Passes

Altitude History

Altitude vs Time

uPlot chart will show altitude changes over time

Two-Line Element Set

1 42811U 17039J 25344.62484682 .00000569 00000-0 19624-3 0 9999
2 42811 86.3962 104.0035 0002320 100.9289 259.2168 14.34217741442952
Epoch: Dec 10, 2025 • Age: 7 hours

Current Status

Altitude 786.4 km
Velocity 7.46 km/s
Sub-Earth Point -20.40°S, 58.7°E
Launch Date Jun 25, 2017
Age 8.4 years
Type communications

Technical Details

Classification Payload
Mass 860.00 kg
Dry Mass 700.00 kg
Total Mass 860.00 kg
Length 3.10 m
Diameter 1.50 m
Span 9.40 m
Shape Half Hex Prism+2 pan
Manufacturer OATKGA
Bus Type EliteBus
Phase Status In Orbit
Owner/State IRIDS/US

Large Constellations

Loading constellations...